FW3893 Weather Reports


Display with metric or nautical units.
time (UTC)temp
F
wind
direction
speed
MPH
gust
MPH
rain 1hr
in
rain 24hr
in
rain mn
in
humidity
%
barometer
mb
20260506233816 51 0.0 0.0 0.00 0.00 0.00 81 1006.7
20260506232838 51 0.0 0.0 0.00 0.00 0.00 82 1006.7
20260506231840 50 0.0 0.0 0.00 0.00 0.00 82 1006.6
20260506230823 50 0.0 0.0 0.00 0.00 0.00 82 1006.6
20260506225825 50 0.0 0.0 0.00 0.00 0.00 82 1006.4
20260506224818 50 0.0 0.0 0.00 0.00 0.00 81 1006.3
20260506223821 50 0.0 0.0 0.00 0.00 0.00 80 1006.5
20260506222823 51 0.0 0.0 0.00 0.00 0.00 80 1006.5
20260506221815 51 0.0 0.0 0.00 0.00 0.00 79 1006.5
20260506220818 51 0.0 0.0 0.00 0.00 0.00 78 1006.5
20260506215840 52 0.0 0.0 0.00 0.00 0.00 79 1006.4
20260506214822 52 0.0 0.0 0.00 0.00 0.00 78 1006.4
20260506213824 52 0.0 0.0 0.00 0.00 0.00 77 1006.4
20260506212816 53 0.0 0.0 0.00 0.00 0.00 76 1006.5
20260506211818 53 0.0 0.0 0.00 0.00 0.00 75 1006.5
20260506210842 53 0.0 0.0 0.00 0.00 0.00 74 1006.5
20260506205825 54 0.0 0.0 0.00 0.00 0.00 72 1006.3
20260506204817 55 0.0 0.0 0.00 0.00 0.00 71 1006.3
20260506203839 57 0.0 0.0 0.00 0.00 0.00 67 1006.4
20260506202822 57 0.0 0.0 0.00 0.00 0.00 66 1006.4
20260506201823 57 0.0 0.0 0.00 0.00 0.00 66 1006.3
20260506200816 58 0.0 0.0 0.00 0.00 0.00 65 1006.3
20260506195818 58 0.0 0.0 0.00 0.00 0.00 64 1006.2
20260506194820 59 0.0 0.0 0.00 0.00 0.00 63 1006.2
20260506193823 59 0.0 0.0 0.00 0.00 0.00 61 1005.9
20260506192815 60 0.0 0.0 0.00 0.00 0.00 60 1005.9
20260506191817 60 0.0 0.0 0.00 0.00 0.00 60 1005.5
20260506190819 61 0.0 0.0 0.00 0.00 0.00 58 1005.5
20260506185821 62 0.0 0.0 0.00 0.00 0.00 56 1005.2
20260506184823 62 0.0 0.0 0.00 0.00 0.00 55 1005.2
20260506183845 62 0.0 0.0 0.00 0.00 0.00 54 1004.5
20260506182817 62 0.0 0.0 0.00 0.00 0.00 53 1004.5
20260506181839 63 0.0 0.0 0.00 0.00 0.00 51 1003.9
20260506180822 64 0.0 0.0 0.00 0.00 0.00 51 1003.9
20260506175823 64 0.0 0.0 0.00 0.00 0.00 50 1003.6
20260506174815 65 0.0 0.0 0.00 0.00 0.00 48 1003.6
20260506173817 66 0.0 0.0 0.00 0.00 0.00 48 1003.2
20260506172819 66 0.0 0.0 0.00 0.00 0.00 49 1003.2
20260506171821 67 0.0 0.0 0.00 0.00 0.00 48 1003.1
20260506170844 67 0.0 0.0 0.00 0.00 0.00 47 1003.1
20260506165816 67 0.0 0.0 0.00 0.00 0.00 45 1002.9
20260506164838 68 0.0 0.0 0.00 0.00 0.00 45 1002.9
20260506163820 68 0.0 0.0 0.00 0.00 0.00 46 1002.8
20260506162822 68 0.0 0.0 0.00 0.00 0.00 45 1002.8
20260506161824 69 0.0 0.0 0.00 0.00 0.00 45 1003.2
20260506160816 69 0.0 0.0 0.00 0.00 0.00 45 1003.2
20260506155818 69 0.0 0.0 0.00 0.00 0.00 44 1002.7
20260506154823 69 0.0 0.0 0.00 0.00 0.00 44 1002.7
20260506153824 70 0.0 0.0 0.00 0.00 0.00 47 1003.2
20260506152817 70 0.0 0.0 0.00 0.00 0.00 47 1003.2
20260506151820 70 0.0 0.0 0.00 0.00 0.00 46 1003.0
20260506150821 71 0.0 0.0 0.00 0.00 0.00 47 1003.0
20260506145824 71 0.0 0.0 0.00 0.00 0.00 47 1003.1
20260506144816 71 0.0 0.0 0.00 0.00 0.00 46 1003.1
20260506143819 71 0.0 0.0 0.00 0.00 0.00 49 1003.2
20260506142820 70 0.0 0.0 0.00 0.00 0.00 51 1003.2
20260506141842 70 0.0 0.0 0.00 0.00 0.00 49 1003.0
20260506140835 70 0.0 0.0 0.00 0.00 0.00 49 1003.0
20260506135837 70 0.0 0.0 0.00 0.00 0.00 51 1003.3
20260506134840 70 0.0 0.0 0.00 0.00 0.00 51 1003.3
20260506133843 70 0.0 0.0 0.00 0.00 0.00 49 1003.8
20260506132825 70 0.0 0.0 0.00 0.00 0.00 49 1003.8
20260506131817 70 0.0 0.0 0.00 0.00 0.00 49 1003.7
20260506130819 71 0.0 0.0 0.00 0.00 0.00 49 1003.7
20260506125820 71 0.0 0.0 0.00 0.00 0.00 53 1003.5
20260506124843 70 0.0 0.0 0.00 0.00 0.00 54 1003.5
20260506123815 71 0.0 0.0 0.00 0.00 0.00 54 1003.6
20260506122838 71 0.0 0.0 0.00 0.00 0.00 62 1003.6
20260506121821 70 0.0 0.0 0.00 0.00 0.00 67 1003.5
20260506120823 69 0.0 0.0 0.00 0.00 0.00 69 1003.5
20260506115816 68 0.0 0.0 0.00 0.00 0.00 74 1003.7
20260506114818 67 0.0 0.0 0.00 0.00 0.00 75 1003.7
20260506113821 66 0.0 0.0 0.00 0.00 0.00 76 1003.7
20260506112824 66 0.0 0.0 0.00 0.00 0.00 73 1003.7
20260506111816 65 0.0 0.0 0.00 0.00 0.00 80 1003.7
20260506110818 65 0.0 0.0 0.00 0.00 0.00 81 1003.7
20260506105821 65 0.0 0.0 0.00 0.00 0.00 84 1004.1
20260506104823 65 0.0 0.0 0.00 0.00 0.00 85 1004.1
20260506103815 64 0.0 0.0 0.00 0.00 0.00 87 1004.3
20260506102817 63 0.0 0.0 0.00 0.00 0.00 89 1004.3
20260506101839 62 0.0 0.0 0.00 0.00 0.00 90 1004.3
20260506100821 61 0.0 0.0 0.00 0.00 0.00 91 1004.3
20260506095823 60 0.0 0.0 0.00 0.00 0.00 91 1004.5
20260506094825 61 0.0 0.0 0.00 0.00 0.00 91 1004.5
20260506093817 59 0.0 0.0 0.00 0.00 0.00 90 1004.5
20260506092820 59 0.0 0.0 0.00 0.00 0.00 90 1004.5
20260506091822 59 0.0 0.0 0.00 0.00 0.00 90 1004.3
20260506090824 59 0.0 0.0 0.00 0.00 0.00 90 1004.3
20260506085815 59 0.0 0.0 0.00 0.00 0.00 90 1004.5
20260506084817 59 0.0 0.0 0.00 0.00 0.00 91 1004.5
20260506083819 59 0.0 0.0 0.00 0.00 0.00 91 1004.5
20260506082844 58 0.0 0.0 0.00 0.00 0.00 92 1004.5
20260506081836 58 0.0 0.0 0.00 0.00 0.00 92 1003.9
20260506080819 58 0.0 0.0 0.00 0.00 0.00 92 1003.9
20260506072817 57 0.0 0.0 0.00 0.00 0.00 93 1004.2
20260506071819 57 0.0 0.0 0.00 0.00 0.00 93 1004.1
20260506070821 56 0.0 0.0 0.00 0.00 0.00 93 1004.1
20260506061820 56 0.0 0.0 0.00 0.00 0.00 92 1004.6
20260506060822 55 0.0 0.0 0.00 0.00 0.00 92 1004.6
20260506050824 54 0.0 0.0 0.00 0.00 0.00 91 1005.2
20260506044817 54 0.0 0.0 0.00 0.00 0.00 91 1004.9
20260506043819 54 0.0 0.0 0.00 0.00 0.00 91 1005.4
20260506042821 54 0.0 0.0 0.00 0.00 0.00 91 1005.4
20260506041823 54 0.0 0.0 0.00 0.00 0.00 91 1006.1
20260506040815 54 0.0 0.0 0.00 0.00 0.00 91 1006.1
20260506035836 54 0.0 0.0 0.00 0.00 0.00 91 1005.6
20260506034818 54 0.0 0.0 0.00 0.00 0.00 91 1005.6
20260506033841 54 0.0 0.0 0.00 0.00 0.00 91 1006.1
20260506032843 54 0.0 0.0 0.00 0.00 0.00 91 1006.1
20260506031825 54 0.0 0.0 0.00 0.00 0.00 90 1006.1
20260506030817 54 0.0 0.0 0.00 0.00 0.00 90 1006.1
20260506025820 54 0.0 0.0 0.00 0.00 0.00 90 1006.2
20260506024822 54 0.0 0.0 0.00 0.00 0.00 90 1006.2
20260506023815 54 0.0 0.0 0.00 0.00 0.00 90 1006.3
20260506022818 54 0.0 0.0 0.00 0.00 0.00 90 1006.3
20260506021821 54 0.0 0.0 0.00 0.00 0.00 90 1006.1
20260506020823 54 0.0 0.0 0.00 0.00 0.00 90 1006.1
20260506015825 54 0.0 0.0 0.00 0.00 0.00 90 1006.2
20260506014837 54 0.0 0.0 0.00 0.00 0.00 90 1006.2
20260506013820 54 0.0 0.0 0.00 0.00 0.00 90 1006.4
20260506012822 54 0.0 0.0 0.00 0.00 0.00 90 1006.4
20260506011845 54 0.0 0.0 0.00 0.00 0.00 90 1006.8
20260506010816 54 0.0 0.0 0.00 0.00 0.00 90 1006.8
20260506005818 53 0.0 0.0 0.00 0.00 0.00 90 1006.8
20260506004821 53 0.0 0.0 0.00 0.00 0.00 90 1006.8
20260506003843 53 0.0 0.0 0.00 0.00 0.00 90 1006.9
20260506002816 54 0.0 0.0 0.00 0.00 0.00 90 1007.0
20260506001818 53 0.0 0.0 0.00 0.00 0.00 90 1007.2
20260506000820 54 0.0 0.0 0.00 0.00 0.00 90 1007.2
20260505235822 54 0.0 0.0 0.00 0.00 0.00 90 1007.1
20260505234844 54 0.0 0.0 0.00 0.00 0.00 90 1007.1